Weather History for Bloomington, IN

Change the Weather History Date:

Monday, March 17, 2014

  Actual Average Record
Temperature  
Mean Temperature 33 °F 43 °F  
Max Temperature 43 °F 55 °F 78 °F (2012)
Min Temperature 22 °F 32 °F 22 °F (2014)
Degree Days  
Heating Degree Days 32 22  
Month to date heating degree days 493 422  
Since 1 July heating degree days 5055 4490  
Cooling Degree Days 0 0  
Month to date cooling degree days 0 0  
Year to date cooling degree days 0 0  
Moisture  
Dew Point 16 °F    
Average Humidity 57    
Maximum Humidity 69    
Minimum Humidity 45    
Precipitation  
Precipitation 0.00 in 0.14 in 0.65 in (2013)
Month to date precipitation 0.90 1.74  
Year to date precipitation 5.55 7.81  
Sea Level Pressure  
Sea Level Pressure 29.92 in    
Wind  
Wind Speed 5 mph (ENE)    
Max Wind Speed 15 mph    
Max Gust Speed 20 mph    
Visibility 10 miles    
Events      
T = Trace of Precipitation, MM = Missing Value Source: NWS Daily Summary

Daily Weather History Graph

Daily Weather History Graph

Search for Another Location

Airport:

Trip Planner

Search our weather history database for the weather conditions in past years. The results will help you decide how hot, cold, wet, or windy it might be!

Date:

Astronomy

Mar. 17, 2014 Rise Set
Actual Time 7:54 AM EDT 7:55 PM EDT
Civil Twilight 7:28 AM EDT 8:22 PM EDT
Nautical Twilight 6:56 AM EDT 8:53 PM EDT
Astronomical Twilight 6:25 AM EDT 9:24 PM EDT
Moon 9:11 PM EDT (3/17) 8:10 AM EDT (3/17)
Length of Visible Light 12h 54m
Length of Day
12h 00m
Full, 99% of the Moon is Illuminated
Mar 17
Full
Mar 23
Last Quarter
Mar 30
New
Apr 7
First Quarter
Apr 15
Full

Hourly Weather History & Observations

Time (EDT) Temp. Windchill Dew Point Humidity Pressure Visibility Wind Dir Wind Speed Gust Speed Precip Events Conditions
12:53 AM 24.1 °F 12.5 °F 10.0 °F 55% 30.01 in 10.0 mi NE 12.7 mph - N/A   Clear
1:53 AM 23.0 °F 13.1 °F 10.9 °F 60% 30.00 in 10.0 mi ENE 9.2 mph - N/A   Clear
2:53 AM 21.9 °F 11.0 °F 10.9 °F 63% 30.01 in 10.0 mi NNE 10.4 mph - N/A   Partly Cloudy
3:25 AM 21.9 °F 11.0 °F 10.9 °F 63% 29.98 in 10.0 mi NE 10.4 mph - N/A   Mostly Cloudy
3:53 AM 21.9 °F 11.0 °F 10.9 °F 63% 29.98 in 10.0 mi NE 10.4 mph - N/A   Overcast
4:53 AM 21.9 °F 10.4 °F 10.9 °F 63% 29.96 in 10.0 mi NE 11.5 mph - N/A   Overcast
5:53 AM 21.9 °F 11.7 °F 10.9 °F 63% 29.94 in 10.0 mi NE 9.2 mph - N/A   Overcast
6:53 AM 21.9 °F 12.5 °F 10.9 °F 63% 29.94 in 10.0 mi ENE 8.1 mph - N/A   Overcast
7:53 AM 23.0 °F 13.9 °F 10.9 °F 60% 29.94 in 10.0 mi ENE 8.1 mph - N/A   Overcast
8:53 AM 23.0 °F 15.8 °F 12.0 °F 63% 29.96 in 10.0 mi NE 5.8 mph - N/A   Overcast
9:53 AM 24.1 °F 16.0 °F 12.9 °F 62% 29.96 in 10.0 mi ENE 6.9 mph - N/A   Overcast
10:53 AM 25.0 °F 18.1 °F 12.9 °F 60% 29.96 in 10.0 mi East 5.8 mph - N/A   Overcast
11:53 AM 27.0 °F 19.5 °F 14.0 °F 58% 29.94 in 10.0 mi ENE 6.9 mph - N/A   Overcast
12:53 PM 28.9 °F 23.9 °F 15.1 °F 56% 29.93 in 10.0 mi ENE 4.6 mph - N/A   Overcast
1:53 PM 32.0 °F 28.7 °F 16.0 °F 52% 29.92 in 10.0 mi SE 3.5 mph - N/A   Overcast
2:53 PM 35.1 °F 32.2 °F 18.0 °F 50% 29.88 in 10.0 mi Variable 3.5 mph - N/A   Overcast
3:53 PM 37.9 °F 35.5 °F 19.9 °F 48% 29.86 in 10.0 mi Variable 3.5 mph - N/A   Overcast
4:53 PM 41.0 °F 37.1 °F 21.0 °F 45% 29.84 in 10.0 mi SE 5.8 mph - 0.00 in   Mostly Cloudy
5:06 PM 39.9 °F - 21.9 °F 49% 29.82 in 10.0 mi Calm Calm - N/A   Overcast
5:53 PM 41.0 °F - 21.9 °F 47% 29.85 in 10.0 mi Calm Calm - N/A   Scattered Clouds
6:53 PM 43.0 °F - 23.0 °F 45% 29.84 in 10.0 mi Calm Calm - N/A   Mostly Cloudy
7:53 PM 39.9 °F - 21.9 °F 49% 29.85 in 10.0 mi Calm Calm - N/A   Mostly Cloudy
8:53 PM 36.0 °F - 24.1 °F 62% 29.86 in 10.0 mi Calm Calm - N/A   Scattered Clouds
9:53 PM 35.1 °F 29.3 °F 23.0 °F 61% 29.88 in 10.0 mi SSE 6.9 mph - N/A   Clear
10:53 PM 30.0 °F - 21.9 °F 72% 29.90 in 10.0 mi Calm Calm - N/A   Clear
11:53 PM 30.0 °F 26.5 °F 21.9 °F 72% 29.90 in 10.0 mi SSE 3.5 mph - N/A   Clear